[[{"header":{"parameterUnit":"m.s-1","parameterCategory":1,"la1":30.2991,"la2":30.254,"lo1":-89.0895,"lo2":-89.0444,"dy":0.0017,"dx":0.0017,"nx":28,"ny":28,"refTime":"2025-11-04T09:00:00:Z","depth":0,"parameterNumber":2,"parameterNumberName":"U-component_of_WINDS"},"data":[0,0,0,0,0,0,0,0,0,0,0,0,0,0,0,0,0,0,0,0,0,0,0,0,0,0,0,0,0,0,0,0,0,0,0,0,0,0,0,0,0,0,0,0,0,0,0,0,0,0,0,0,0,0,0,0,0,0,0.183,0.183,0,0.1863,0.1863,0.1863,0.1868,0.1868,0.1868,0.1867,0.19,0.1902,0.1903,0,0,0,0,0,0,0,0,0,0,0,0,0,0.177,0.1772,0.183,0.183,0.1831,0.1863,0.1863,0.1864,0.1868,0.1868,0.1868,0.1867,0.19,0.1901,0.1903,0,0,0,0,0,0,0,0,0,0,0,0,0,0.1799,0.1772,0.183,0.1837,0.1838,0.1863,0.1863,0.1864,0.1868,0.1868,0.1868,0.1867,0.19,0.1901,0.1903,0.1923,0,0,0.1908,0.1909,0,0,0,0,0,0,0,0,0.1797,0.1801,0.1835,0.1836,0.1838,0.1861,0.1854,0.1883,0.1869,0.1857,0.1867,0.1867,0.1888,0.189,0.1897,0.1924,0.1926,0.1909,0.191,0.191,0.1911,0,0,0,0,0,0,0,0.1795,0.18,0.1843,0.1836,0.1837,0.1838,0.1842,0.186,0.1874,0.1858,0.1858,0.1862,0.1888,0.1896,0.1898,0.1926,0.1908,0.191,0.1911,0.1912,0.1971,0.1971,0,0,0,0,0,0,0.1792,0.1798,0.1842,0.1844,0.1816,0.184,0.1844,0.1854,0.1874,0.1877,0.1862,0.1862,0.1893,0.1896,0.1899,0.1924,0.191,0.1912,0.1913,0.197,0.1971,0.1971,0,0,0,0,0,0,0.1791,0.1796,0.184,0.1821,0.1827,0.1841,0.1853,0.1855,0.1862,0.1878,0.188,0.1868,0.1893,0.1897,0.1917,0.1925,0.1913,0.1914,0.1969,0.197,0.1971,0.1972,0,0,0,0,0,0,0.1789,0.1796,0.1803,0.1821,0.1828,0.1857,0.1853,0.1856,0.1865,0.1865,0.1883,0.1886,0.1893,0.1914,0.1919,0.1927,0.1916,0.1969,0.197,0.1971,0.1972,0.1973,0.1974,0,0,0,0,0,0.1787,0.1802,0.1804,0.1809,0.1838,0.1858,0.1862,0.187,0.1866,0.1874,0.1884,0.1885,0.1923,0.1916,0.1921,0.193,0.1968,0.197,0.1971,0.1971,0.1973,0.1974,0,0,0,0,0,0,0.1785,0.1805,0.1807,0.1828,0.1841,0.1859,0.1869,0.1871,0.1886,0.1885,0.1894,0.1898,0.1918,0.1926,0.1918,0.195,0.1946,0.1948,0.1944,0.1946,0.1947,0.1945,0.1917,0,0,0,0,0,0.1787,0.1802,0.1818,0.1836,0.1842,0.1854,0.1863,0.1868,0.1882,0.1888,0.1899,0.1913,0.1928,0.1937,0.1952,0.1973,0.1977,0.1982,0.1983,0.1984,0.1986,0.1997,0.2,0.1975,0.1975,0.1975,0,0,0.1791,0.1804,0.1812,0.1835,0.1846,0.1861,0.1859,0.1875,0.1886,0.189,0.191,0.1918,0.1934,0.1955,0.1964,0.1962,0.1993,0.1986,0.1986,0.1987,0.1999,0.2001,0.2003,0.1976,0.1976,0.1976,0,0,0.1806,0.1817,0.1833,0.1844,0.1861,0.1869,0.1872,0.189,0.1896,0.1915,0.1919,0.1932,0.1958,0.1969,0.1978,0.1997,0.1999,0.2002,0.2009,0.202,0.2022,0.2023,0.203,0.2033,0.2003,0.2003,0.2003,0,0.1809,0.1832,0.1841,0.1857,0.1866,0.1871,0.1887,0.1897,0.1918,0.1924,0.1922,0.1954,0.1965,0.1988,0.1993,0.2,0.2004,0.2,0.2021,0.2023,0.2024,0.2031,0.2034,0.2004,0.2004,0.2004,0.2004,0,0.1835,0.1851,0.1861,0.1881,0.1892,0.1908,0.1919,0.1929,0.1933,0.1941,0.1961,0.1974,0.1992,0.1998,0.2002,0.2022,0.202,0.2019,0.2014,0.2027,0.2033,0.2036,0.2004,0.2004,0.2004,0.2004,0,0,0.1849,0.1874,0.1877,0.1887,0.1905,0.1918,0.1933,0.1951,0.1959,0.1973,0.1986,0.2008,0.2008,0.2018,0.2023,0.2033,0.2048,0.2031,0.2032,0.2033,0.207,0.207,0.2073,0.2049,0.2049,0.205,0.2068,0,0.1866,0.1895,0.1903,0.1927,0.1942,0.1947,0.1961,0.1974,0.1982,0.1995,0.2004,0.2019,0.2018,0.2024,0.2034,0.2044,0.2055,0.2042,0.2061,0.2062,0.2057,0.2076,0.2076,0.2093,0.2071,0.2071,0.2072,0,0.189,0.1905,0.193,0.1947,0.1954,0.1966,0.1983,0.1995,0.201,0.2015,0.2027,0.2031,0.2048,0.2042,0.2065,0.2057,0.2065,0.2071,0.2072,0.2074,0.2067,0.2078,0.2099,0.2101,0.2076,0.2075,0.2075,0,0.1898,0.1924,0.1943,0.195,0.197,0.1979,0.1988,0.2002,0.2012,0.2026,0.2033,0.2049,0.2057,0.207,0.2078,0.2074,0.2101,0.2096,0.2105,0.2105,0.211,0.211,0.2132,0.2116,0.2116,0.2116,0.2116,0,0.1916,0.1931,0.1946,0.1958,0.1975,0.1985,0.2001,0.201,0.2023,0.2036,0.2041,0.2054,0.2065,0.2078,0.2085,0.2103,0.2107,0.2111,0.2113,0.2111,0.211,0.2116,0.2115,0.2117,0.2116,0.2116,0.2116,0,0.1927,0.1938,0.1959,0.1976,0.1981,0.1993,0.2008,0.2019,0.2027,0.2044,0.2048,0.2062,0.2078,0.2088,0.2109,0.2113,0.2133,0.2134,0.2128,0.2129,0.2137,0.2136,0.2164,0.2168,0.2149,0.215,0.215,0,0.1938,0.195,0.1969,0.1978,0.1987,0.2002,0.2012,0.2022,0.2032,0.205,0.2059,0.2076,0.209,0.2115,0.2127,0.2142,0.2144,0.2153,0.2146,0.2144,0.2144,0.2143,0.2144,0.2154,0.2154,0.2154,0.2154,0,0.1956,0.196,0.1975,0.1992,0.2004,0.2017,0.203,0.2038,0.205,0.2061,0.2078,0.2088,0.211,0.2126,0.2143,0.2152,0.2155,0.2156,0.2159,0.2157,0.2152,0.2155,0.2131,0.2155,0.2155,0.2155,0.2155,0.2155,0.1967,0.1978,0.1993,0.2009,0.202,0.2032,0.2044,0.2054,0.2068,0.2086,0.2091,0.2109,0.2123,0.2146,0.2155,0.2169,0.2168,0.2172,0.2173,0.2174,0.2174,0.215,0.2172,0.2172,0.2172,0.2172,0.2172,0,0.1985,0.1995,0.201,0.2028,0.2041,0.2043,0.2058,0.2068,0.2084,0.2097,0.211,0.213,0.2146,0.2159,0.2175,0.2184,0.2185,0.2188,0.2187,0.2189,0.2174,0.217,0.2186,0.2186,0.2186,0.2186,0.2186,0.2186,0.1995,0.2014,0.2021,0.2045,0.2054,0.2072,0.208,0.2092,0.2102,0.2124,0.2137,0.2145,0.2158,0.2176,0.2191,0.2194,0.22,0.2202,0.2205,0.2191,0.219,0.2188,0.2184,0.2203,0.2203,0.2218,0.2218,0.2219]},{"header":{"parameterUnit":"m.s-1","parameterCategory":1,"la1":30.2991,"la2":30.254,"lo1":-89.0895,"lo2":-89.0444,"dy":0.0017,"dx":0.0017,"nx":28,"ny":28,"refTime":"2025-11-04T09:00:00:Z","depth":0,"parameterNumber":3,"parameterNumberName":"V-component_of_WINDS"},"data":[0,0,0,0,0,0,0,0,0,0,0,0,0,0,0,0,0,0,0,0,0,0,0,0,0,0,0,0,0,0,0,0,0,0,0,0,0,0,0,0,0,0,0,0,0,0,0,0,0,0,0,0,0,0,0,0,0,0,-0.5261,-0.5263,0,-0.5462,-0.5464,-0.5467,-0.5519,-0.5518,-0.5517,-0.5515,-0.5731,-0.5737,-0.5744,0,0,0,0,0,0,0,0,0,0,0,0,0,-0.4933,-0.4938,-0.5261,-0.5264,-0.5266,-0.5462,-0.5464,-0.5467,-0.5519,-0.5518,-0.5516,-0.5515,-0.5728,-0.5736,-0.5745,0,0,0,0,0,0,0,0,0,0,0,0,0,-0.5099,-0.494,-0.5261,-0.5315,-0.5322,-0.5461,-0.5465,-0.5468,-0.552,-0.5518,-0.5516,-0.5514,-0.5726,-0.5736,-0.5746,-0.5847,0,0,-0.5777,-0.5782,0,0,0,0,0,0,0,0,-0.5089,-0.5111,-0.5305,-0.5312,-0.532,-0.5463,-0.5428,-0.5596,-0.552,-0.5445,-0.5515,-0.5513,-0.5644,-0.5661,-0.5703,-0.5857,-0.5867,-0.5778,-0.5785,-0.5789,-0.5792,0,0,0,0,0,0,0,-0.5078,-0.5102,-0.5341,-0.5308,-0.5317,-0.5333,-0.5355,-0.546,-0.5553,-0.5451,-0.5456,-0.5478,-0.5648,-0.5693,-0.5708,-0.587,-0.5778,-0.5787,-0.5794,-0.5798,-0.6121,-0.6123,0,0,0,0,0,0,-0.5055,-0.5092,-0.5335,-0.5347,-0.5197,-0.5341,-0.5365,-0.5419,-0.5552,-0.557,-0.548,-0.548,-0.5676,-0.5696,-0.5716,-0.5845,-0.5789,-0.5799,-0.5805,-0.6118,-0.6121,-0.6124,0,0,0,0,0,0,-0.5048,-0.5076,-0.5326,-0.5221,-0.5254,-0.5348,-0.5409,-0.5424,-0.5469,-0.5573,-0.5591,-0.5508,-0.5675,-0.5702,-0.5814,-0.5854,-0.5803,-0.5813,-0.6115,-0.6119,-0.6122,-0.6103,0,0,0,0,0,0,-0.5038,-0.5073,-0.5111,-0.5221,-0.5259,-0.5418,-0.5412,-0.543,-0.5486,-0.5488,-0.5604,-0.5622,-0.5676,-0.5798,-0.5824,-0.5867,-0.5821,-0.6112,-0.6117,-0.6121,-0.6101,-0.6106,-0.611,0,0,0,0,0,-0.5026,-0.5099,-0.5112,-0.5141,-0.5307,-0.542,-0.5442,-0.55,-0.5489,-0.5529,-0.5596,-0.5618,-0.5844,-0.581,-0.5839,-0.5885,-0.611,-0.6116,-0.6121,-0.6099,-0.6105,-0.611,0,0,0,0,0,0,-0.4994,-0.5114,-0.513,-0.524,-0.5319,-0.5429,-0.5481,-0.5505,-0.5591,-0.559,-0.5661,-0.5687,-0.5795,-0.5852,-0.5811,-0.5992,-0.5978,-0.5989,-0.5951,-0.5958,-0.5962,-0.5947,-0.5829,0,0,0,0,0,-0.4998,-0.5077,-0.5179,-0.5267,-0.5305,-0.5386,-0.5437,-0.5475,-0.5561,-0.5596,-0.5671,-0.5756,-0.5847,-0.5905,-0.5994,-0.6109,-0.6137,-0.6156,-0.616,-0.6163,-0.6173,-0.6241,-0.6251,-0.6141,-0.6141,-0.6141,0,0,-0.5011,-0.5086,-0.5132,-0.5262,-0.5327,-0.541,-0.5414,-0.5501,-0.5565,-0.561,-0.572,-0.5778,-0.5879,-0.5993,-0.6048,-0.6044,-0.6209,-0.617,-0.6172,-0.618,-0.6247,-0.6257,-0.6267,-0.6145,-0.6144,-0.6144,0,0,-0.5075,-0.5139,-0.5219,-0.5284,-0.5383,-0.5436,-0.5455,-0.5562,-0.5601,-0.5712,-0.5749,-0.5827,-0.598,-0.6051,-0.6107,-0.6199,-0.6224,-0.6226,-0.6251,-0.6315,-0.6324,-0.6332,-0.6367,-0.6379,-0.6235,-0.6235,-0.6235,0,-0.5079,-0.5202,-0.5258,-0.5344,-0.5401,-0.5443,-0.5527,-0.5589,-0.5712,-0.5753,-0.5745,-0.594,-0.6011,-0.6143,-0.6165,-0.6208,-0.6235,-0.6214,-0.6317,-0.6326,-0.6335,-0.6369,-0.6382,-0.6235,-0.6235,-0.6235,-0.6235,0,-0.5203,-0.5288,-0.5341,-0.5456,-0.552,-0.5604,-0.5677,-0.5735,-0.5767,-0.5822,-0.5937,-0.6022,-0.613,-0.6164,-0.6197,-0.6303,-0.6297,-0.6303,-0.6291,-0.6344,-0.6378,-0.6391,-0.6234,-0.6234,-0.6235,-0.6235,0,0,-0.5253,-0.5398,-0.5417,-0.547,-0.5582,-0.5651,-0.5738,-0.5841,-0.589,-0.5974,-0.6052,-0.6181,-0.6187,-0.6251,-0.6293,-0.6349,-0.6419,-0.6349,-0.6352,-0.6361,-0.6543,-0.6539,-0.6553,-0.6436,-0.6438,-0.644,-0.6535,0,-0.5333,-0.5487,-0.5541,-0.567,-0.5751,-0.5792,-0.5869,-0.5948,-0.6002,-0.6081,-0.6142,-0.6233,-0.6233,-0.6272,-0.633,-0.6398,-0.6457,-0.6392,-0.6512,-0.6515,-0.6487,-0.6571,-0.6567,-0.6652,-0.6549,-0.6551,-0.6553,0,-0.5447,-0.553,-0.5666,-0.5769,-0.5805,-0.5872,-0.5972,-0.6046,-0.6137,-0.6173,-0.6243,-0.6281,-0.6378,-0.6358,-0.6494,-0.6449,-0.6501,-0.6542,-0.6547,-0.6562,-0.6538,-0.659,-0.6681,-0.6694,-0.6573,-0.6572,-0.657,0,-0.5473,-0.5619,-0.5719,-0.5764,-0.5885,-0.5932,-0.5986,-0.6075,-0.6134,-0.6221,-0.6261,-0.6359,-0.6414,-0.6491,-0.6556,-0.6535,-0.6688,-0.6673,-0.6723,-0.6721,-0.6755,-0.6752,-0.6857,-0.6785,-0.6784,-0.6784,-0.6784,0,-0.5558,-0.564,-0.5733,-0.5795,-0.5889,-0.5951,-0.6044,-0.6101,-0.618,-0.6257,-0.6299,-0.6371,-0.6451,-0.6534,-0.6585,-0.6692,-0.6716,-0.675,-0.6763,-0.6747,-0.6743,-0.6784,-0.6781,-0.6788,-0.6787,-0.6786,-0.6786,0,-0.5603,-0.5668,-0.5781,-0.5886,-0.5914,-0.598,-0.6072,-0.6136,-0.6191,-0.6287,-0.6314,-0.6402,-0.6502,-0.6573,-0.6703,-0.6738,-0.6853,-0.6865,-0.6821,-0.6828,-0.6875,-0.687,-0.7012,-0.7035,-0.6944,-0.6945,-0.6946,0,-0.5654,-0.5718,-0.5829,-0.5882,-0.5935,-0.6019,-0.6079,-0.6143,-0.6204,-0.6313,-0.6365,-0.6467,-0.6552,-0.6711,-0.6789,-0.6889,-0.6905,-0.6947,-0.6921,-0.6903,-0.6908,-0.6904,-0.6913,-0.6952,-0.6953,-0.6953,-0.6954,0,-0.5738,-0.5767,-0.5849,-0.5943,-0.6012,-0.609,-0.6169,-0.621,-0.629,-0.6356,-0.6457,-0.6523,-0.6655,-0.6757,-0.6864,-0.6924,-0.6954,-0.6961,-0.6978,-0.6964,-0.6937,-0.6954,-0.6834,-0.6958,-0.6958,-0.6957,-0.6957,-0.6957,-0.579,-0.5849,-0.5937,-0.6028,-0.6093,-0.6165,-0.6231,-0.6293,-0.6378,-0.6487,-0.6521,-0.6627,-0.6719,-0.6866,-0.6927,-0.7013,-0.7011,-0.7035,-0.7042,-0.7048,-0.7048,-0.6921,-0.7032,-0.7032,-0.7032,-0.7032,-0.7032,0,-0.5878,-0.5936,-0.6019,-0.6126,-0.6198,-0.6216,-0.6304,-0.6365,-0.6456,-0.6538,-0.662,-0.6738,-0.6837,-0.6922,-0.7026,-0.7079,-0.7095,-0.7104,-0.7102,-0.7116,-0.7043,-0.7018,-0.7089,-0.7089,-0.7089,-0.7089,-0.7089,-0.7089,-0.5932,-0.6034,-0.6073,-0.6209,-0.6268,-0.6369,-0.6418,-0.6487,-0.6552,-0.6681,-0.6762,-0.6816,-0.69,-0.7011,-0.7104,-0.7127,-0.7164,-0.7171,-0.7197,-0.7127,-0.7121,-0.7115,-0.7092,-0.7178,-0.7178,-0.7264,-0.7264,-0.7265]}]]